Regional Weather Roundup
Issued by NWS Green Bay, WI

Home | Current Version | Previous Version | Graphics & Text | Print | Product List | Glossary Off
Versions: 1 2 3 4 5 6 7 8 9 10 11 12 13 14 15 16 17 18 19 20 21 22 23 24 25 26 27 28 29 30 31 32 33 34 35 36 37 38 39 40 41 42 43 44 45 46 47 48 49 50

000
ASUS43 KGRB 251911
RWRGRB

NORTH-CENTRAL AND NORTHEAST WISCONSIN REGIONAL WEATHER ROUNDUP
NATIONAL WEATHER SERVICE GREEN BAY WI
200 PM CDT SUN JUN 25 2017

WIZ005-009-010>012-018-019-252000-
NORTH CENTRAL WISCONSIN

CITY           SKY/WX    TMP DP  RH WIND       PRES   REMARKS
IRONWOOD       CLOUDY    60  53  77 VRB3      30.01F
MANITOWISH WTR RAIN      55  54  97 CALM      30.01S
ARBOR VITAE    MOSUNNY   62  52  68 W7        30.00S
EAGLE RIVER    LGT RAIN  56  50  80 N8        30.00F
LAND O LAKES   CLOUDY    60  50  69 SW6       30.02R THUNDER
RHINELANDER    CLOUDY    63  53  70 SW13      30.01S
PHILLIPS       HVY RAIN  55  53  96 NW10      30.04R
ANTIGO         PTSUNNY   61  54  77 W9        30.03S
TOMAHAWK       NOT AVBL
MERRILL        CLOUDY    62  51  68 W9G18     30.03F
$$

WIZ013-073-252000-
NORTHEAST WISCONSIN

CITY           SKY/WX    TMP DP  RH WIND       PRES   REMARKS
IRON MOUNTAIN  MOSUNNY   68  49  50 VRB7      29.96F
MARINETTE      MOSUNNY   67  53  61 SW8       29.98F
OCONTO         CLOUDY    68  51  54 W9G16     29.98F
$$

WIZ017-030-035>037-045-252000-
CENTRAL WISCONSIN

CITY           SKY/WX    TMP DP  RH WIND       PRES   REMARKS
MEDFORD        CLOUDY    61  50  68 W13       30.04F
WAUSAU         CLOUDY    62  52  69 W14       30.02F
MOSINEE        LGT RAIN  57  52  82 W15G23    30.06F
MARSHFIELD     CLOUDY    59  53  80 W14       30.06S
WISC RAPIDS    LGT RAIN  57  54  89 N10       30.08S FOG
STEVENS POINT  LGT RAIN  56  53  89 W8G22     30.06S
WAUPACA        PTSUNNY   66  49  54 W12G18    30.05F
SHAWANO        PTSUNNY   71  51  49 W16       30.00S
CLINTONVILLE   SUNNY     68  48  49 W13G21    30.02S
WAUTOMA        CLOUDY    64  51  62 W8        30.06F
$$

WIZ038-039-048-051-252000-
FOX VALLEY

CITY           SKY/WX    TMP DP  RH WIND       PRES   REMARKS
NWS GREEN BAY  LGT RAIN  66  54  65 W13       30.01S
APPLETON       PTSUNNY   64  46  52 W17       30.02F
OSHKOSH        MOSUNNY   66  51  58 W14G20    30.04S
FOND DU LAC    MOSUNNY   67  49  52 W13G22    30.05F
$$

WIZ022-050-052-252000-
EAST CENTRAL WISCONSIN

CITY           SKY/WX    TMP DP  RH WIND       PRES   REMARKS
EPHRAIM        MOCLDY    64  53  68 W5        29.97F
WASHINGTON ISL CLOUDY    63  53  70 N7        29.97F
STURGEON BAY     N/A     63  53  70 W8          N/A
MANITOWOC      MOSUNNY   65  50  58 W16       30.01F
SHEBOYGAN      PTSUNNY   67  52  58 W13G25    30.03S
$$

LMZ563-521-522-541>543-252000-
LAKESHORE

STATION/POSITION TIME  TEMP    WIND        PRES    VSBY  WAVE
                       AIR SEA DIR/SP/G                  HT/PER
                 (UTC) (F)     (DEG/KT/KT) (MB)    (MI)  (FT/S)
SHEBOYGAN LKSHOR 1900   66     270/ 11/ 14 1016.4F
KEWAUNEE LKSHORE 1842   65     270/  4/  7 1015.5S
NORTHPORT PIER   1830   62     330/  6/  7 1015.2F
N MID LAKE BUOY  1850   57 58  240/  4/  4 1015.9F         1/ 3
S GREEN BAY BUOY 1900   64     220/  4/  4 1015.3
CHAMBERS ISLAND  1830   63      40/  2/  3 1014.9S
MENOMINEE LKSHOR 1836          250/  9/ 12 1014.5F
$$




USA.gov is the U.S. government's official web portal to all federal, state and local government web resources and services.